Location: Unspecified
(47.1121°N, 116.3927°W)
Time: 11:17:32
(UTC-07:00)

ISS - Pass Details

Date: 23 May 2019
Orbit: 407 x 418 km, 51.6° (Epoch: 25 June)

Event Time Altitude Azimuth Distance (km) Brightness Sun altitude
Rises 00:31:43 0° 294° (WNW) 2,365 0.4 -22.3°
Reaches altitude 10° 00:33:50 10° 298° (WNW) 1,501 -0.6 -22.3°
Enters shadow 00:36:48 55° 346° (NNW) 512 -3.1 -22.3°
